Lid_Strength_Index
19 19 19 19 18 18 18 18 19 21 21 20 19 18 17 17 15 17 17 13 12 11 11 11 11 10 10 10 10 9 9 9 8 8 7 7 6 6
18 18 18 18 18 18 18 18 19 20 21 20 19 19 18 16 15 17 17 14 13 12 12 11 11 10 10 10 10 10 9 9 9 8 8 7 7 7
18 18 18 17 18 17 17 17 18 18 20 19 18 18 18 18 17 17 17 17 17 13 12 11 11 10 10 10 10 10 10 10 9 9 8 8 8 7
17 17 17 16 18 18 18 18 18 18 18 19 18 18 18 17 17 18 16 15 17 14 12 11 11 11 10 10 10 10 10 10 10 9 9 9 9 8
16 17 17 17 17 17 17 17 17 16 17 18 18 17 17 17 17 17 17 17 15 13 12 12 11 11 11 10 10 11 11 11 11 10 10 10 10 9
16 16 17 17 17 17 16 17 17 17 18 18 18 17 17 16 17 17 17 16 16 13 13 12 11 11 11 11 11 12 12 11 11 11 10 10 10 9
16 15 15 15 14 15 16 17 17 18 18 18 18 18 18 17 18 17 17 16 16 15 15 14 14 15 14 12 12 12 12 11 11 11 11 10 10 10
16 15 15 13 13 12 11 11 14 19 18 18 17 18 18 17 17 17 17 17 18 15 16 15 15 15 14 14 12 11 11 11 11 10 10 10 10 10
14 13 13 12 12 13 12 11 11 10 11 15 16 16 18 15 15 16 16 16 17 15 16 16 14 15 14 13 11 10 10 10 10 10 10 10 11 11
13 13 14 14 13 13 13 13 13 13 13 13 14 14 14 14 14 14 14 15 14 14 14 16 14 15 14 14 11 10 10 10 10 10 9 10 10 10
12 12 13 13 11 10 12 16 14 13 11 9 10 10 9 9 10 14 16 14 14 14 13 15 14 14 14 14 13 10 10 10 10 10 10 10 10 10
12 12 10 10 9 9 11 14 14 13 12 12 12 11 10 11 9 11 15 17 15 17 13 15 15 14 17 14 14 13 14 11 10 10 10 10 10 12
11 12 11 9 9 8 8 11 11 10 11 11 12 12 12 12 11 11 11 12 14 16 11 13 17 16 16 15 14 13 13 13 13 13 11 11 11 12
12 11 10 8 8 8 8 8 8 8 9 10 11 11 11 11 10 10 10 11 11 11 11 11 19 16 22 16 16 14 13 13 13 13 13 11 10 10
10 9 8 7 7 8 7 7 7 9 10 10 10 11 10 10 10 11 11 11 12 12 11 11 13 14 17 16 16 15 14 13 12 13 12 12 12 12
11 12 10 9 8 9 9 8 8 9 9 9 10 9 9 11 11 12 14 13 16 13 11 11 12 13 17 15 15 15 14 15 13 13 12 12 12 11
11 12 13 13 12 12 12 12 11 11 11 10 11 11 11 11 11 12 12 13 16 15 14 13 11 12 13 14 15 14 14 14 13 13 13 13 12 11
9 11 11 12 12 12 12 11 11 10 11 10 10 11 11 12 12 12 12 15 14 13 14 14 16 18 16 13 11 13 13 13 12 12 12 14 13 11
14 14 13 13 14 13 12 12 12 11 10 10 10 11 11 12 11 13 13 12 12 12 12 13 16 15 15 17 13 9 13 12 13 13 12 13 13 11
16 16 16 14 14 14 14 13 12 11 10 10 11 12 12 13 14 13 12 12 12 12 12 11 11 11 13 14 14 11 7 10 11 12 12 10 10 7
16 17 16 15 14 13 12 12 10 11 10 10 10 10 10 11 12 11 10 8 8 9 11 11 9 6 8 9 12 12 9 6 7 9 10 11 11 10
16 15 14 13 13 13 12 12 12 11 11 11 11 9 9 9 11 10 10 10 10 10 10 9 8 9 12 11 12 12 11 9 7 6 6 7 10 12
14 13 13 13 11 11 11 10 11 12 12 12 11 9 9 10 9 9 9 9 9 9 9 10 9 9 10 10 10 11 11 11 10 10 9 6 6 6